Terminal Aerodrome Forecast
Issued by NWS Mt. Holly, NJ

Home | Current Version | Previous Version | Text Only | Print | Product List | Glossary On
Versions: 1 2 3 4 5 6 7 8 9 10 11 12 13 14
695
FTUS41 KPHI 242338
TAFRDG
TAF
KRDG 242338Z 2500/2524 14009G20KT 6SM -RA SCT025 OVC050
      TEMPO 2500/2504 4SM RA OVC015
     FM250400 10008KT 3SM RA OVC015
     FM250900 09011KT 4SM RA OVC008
     FM251200 09009KT 6SM -RA OVC007
     FM252000 VRB04KT 6SM BR OVC015=

USA.gov is the U.S. government's official web portal to all federal, state and local government web resources and services.